This is the latest recevied weather packets stored in our database for station/object N4NVD-13. If no packets are shown the sender has not sent any weather packets the latest 10 day(s).
| Time | Temp. | Humidity | Pressure | Rain* | Wind** | Luminosity | Snow |
|---|---|---|---|---|---|---|---|
| 1777839749 | 26.67° C | 45% | 1018.9 hPa | 0 mm | - | 673 W/m² | - |
| 1777839447 | 26.67° C | 46% | 1019 hPa | 0 mm | - | 736 W/m² | - |
| 1777839144 | 26.11° C | 45% | 1019 hPa | 0 mm | - | 791 W/m² | - |
| 1777838840 | 27.22° C | 45% | 1019.1 hPa | 0 mm | - | 196 W/m² | - |
| 1777838537 | 26.67° C | 47% | 1019 hPa | 0 mm | - | 487 W/m² | - |
| 1777838233 | 26.11° C | 46% | 1019.5 hPa | 0 mm | - | 723 W/m² | - |
| 1777837931 | 26.11° C | 45% | 1019.5 hPa | 0 mm | - | 635 W/m² | - |
| 1777837628 | 26.67° C | 45% | 1019.5 hPa | 0 mm | - | 804 W/m² | - |
| 1777837324 | 26.11° C | 44% | 1019.5 hPa | 0 mm | - | 804 W/m² | - |
| 1777837020 | 26.11° C | 44% | 1019.7 hPa | 0 mm | - | 676 W/m² | - |
| 1777836716 | 25.56° C | 42% | 1020 hPa | 0 mm | - | 746 W/m² | - |
| 1777836412 | 26.67° C | 46% | 1019.9 hPa | 0 mm | - | 746 W/m² | - |
| 1777836107 | 26.11° C | 43% | 1019.8 hPa | 0 mm | - | 795 W/m² | - |
| 1777835804 | 25.56° C | 45% | 1020.2 hPa | 0 mm | - | 718 W/m² | - |
| 1777835501 | 26.11° C | 44% | 1020.1 hPa | 0 mm | - | 854 W/m² | - |
| 1777835198 | 26.11° C | 42% | 1020.1 hPa | 0 mm | - | 821 W/m² | - |
| 1777834895 | 26.11° C | 44% | 1020.2 hPa | 0 mm | - | 730 W/m² | - |
| 1777834591 | 26.11° C | 44% | 1020.4 hPa | 0 mm | - | 788 W/m² | - |
| 1777834286 | 26.11° C | 45% | 1020.4 hPa | 0 mm | - | 837 W/m² | - |
| 1777833982 | 26.11° C | 45% | 1020.5 hPa | 0 mm | - | 752 W/m² | - |
| 1777833679 | 26.11° C | 47% | 1020.5 hPa | 0 mm | - | 799 W/m² | - |
| 1777833375 | 25.56° C | 45% | 1020.7 hPa | 0 mm | - | 774 W/m² | - |
| 1777833073 | 26.11° C | 46% | 1020.5 hPa | 0 mm | - | 774 W/m² | - |
| 1777832771 | 26.11° C | 45% | 1020.6 hPa | 0 mm | - | 803 W/m² | - |
| 1777832469 | 25.56° C | 47% | 1020.8 hPa | 0 mm | - | 789 W/m² | - |
* Rain latest hour (hover to see other rain measurements)
** Current wind speed in m/s (hover to see current wind gust speed)